Weather History for KFYV - May, 2013

Change the Weather History Date:

Thursday, May 2, 2013

  Actual Average Record
Temperature  
Mean Temperature 46 °F 62 °F  
Max Temperature 58 °F 73 °F 86 °F (1955)
Min Temperature 34 °F 50 °F 33 °F (1970)
Degree Days  
Heating Degree Days 19 5  
Month to date heating degree days 19 10  
Since 1 July heating degree days 4043 4108  
Cooling Degree Days 0 1  
Month to date cooling degree days 1 2  
Year to date cooling degree days 30 30  
Moisture  
Dew Point 45 °F    
Average Humidity 93    
Maximum Humidity 100    
Minimum Humidity 86    
Precipitation  
Precipitation 0.54 in 0.19 in 2.00 in (1954)
Month to date precipitation 0.54 0.39  
Year to date precipitation 16.40 14.56  
Sea Level Pressure  
Sea Level Pressure 30.19 in    
Wind  
Wind Speed 9 mph (NNW)    
Max Wind Speed 20 mph    
Max Gust Speed 25 mph    
Visibility 7 miles    
Events Rain    
T = Trace of Precipitation, MM = Missing Value Source: NWS Daily Summary

Daily Weather History Graph

Daily Weather History Graph

Search for Another Location

Airport or City:

Trip Planner

Search our weather history database for the weather conditions in past years. The results will help you decide how hot, cold, wet, or windy it might be!

Date:

Astronomy

May. 02, 2013 Rise Set
Actual Time 6:22 AM CDT 8:05 PM CDT
Civil Twilight 5:55 AM CDT 8:32 PM CDT
Nautical Twilight 5:21 AM CDT 9:05 PM CDT
Astronomical Twilight 4:46 AM CDT 9:41 PM CDT
Moon 1:56 AM CDT (5/2) 1:08 PM CDT (5/2)
Length of Visible Light 14h 37m
Length of Day
13h 42m
Waning Gibbous, 47% of the Moon is Illuminated
May 2
Waning Gibbous
May 9
New
May 17
First Quarter
May 24
Full
May 31
Last Quarter

Hourly Weather History & Observations

Time (CDT) Temp. Windchill Dew Point Humidity Pressure Visibility Wind Dir Wind Speed Gust Speed Precip Events Conditions
12:53 AM 55.9 °F - 55.0 °F 97% 30.04 in 10.0 mi Calm Calm - N/A   Clear
1:53 AM 55.0 °F - 55.0 °F 100% 30.04 in 10.0 mi Calm Calm - N/A   Clear
2:53 AM 53.1 °F - 53.1 °F 100% 30.06 in 10.0 mi Calm Calm - N/A   Clear
3:53 AM 53.1 °F - 53.1 °F 100% 30.08 in 10.0 mi Calm Calm - N/A   Clear
4:53 AM 54.0 °F - 54.0 °F 100% 30.08 in 9.0 mi Calm Calm - N/A   Scattered Clouds
5:02 AM 53.6 °F - 53.6 °F 100% 30.11 in 9.0 mi Calm Calm - N/A   Mostly Cloudy
5:53 AM 57.0 °F - 57.0 °F 100% 30.10 in 10.0 mi NNW 8.1 mph - N/A   Overcast
6:00 AM 57.2 °F - 57.2 °F 100% 30.13 in 10.0 mi NW 9.2 mph - N/A   Overcast
6:53 AM 57.0 °F - 57.0 °F 100% 30.12 in 5.0 mi NW 12.7 mph - N/A   Overcast
7:53 AM 53.1 °F - 50.0 °F 89% 30.16 in 10.0 mi NNW 9.2 mph - N/A   Overcast
8:53 AM 51.1 °F - 48.0 °F 89% 30.18 in 10.0 mi NNW 8.1 mph - N/A   Overcast
9:53 AM 50.0 °F - 48.0 °F 93% 30.19 in 7.0 mi NW 10.4 mph - N/A   Overcast
10:53 AM 48.9 °F - 48.0 °F 97% 30.22 in 4.0 mi NNW 9.2 mph - 0.00 in   Overcast
11:53 AM 50.0 °F - 46.9 °F 89% 30.21 in 7.0 mi North 6.9 mph - 0.00 in   Overcast
12:53 PM 50.0 °F - 46.0 °F 86% 30.20 in 9.0 mi NNW 8.1 mph - N/A   Overcast
1:53 PM 48.9 °F - 46.0 °F 90% 30.21 in 8.0 mi NNW 10.4 mph - N/A   Overcast
2:53 PM 48.0 °F - 45.0 °F 89% 30.22 in 8.0 mi NNW 13.8 mph - N/A   Overcast
3:53 PM 46.0 °F 40.6 °F 45.0 °F 96% 30.21 in 4.0 mi NNW 11.5 mph 19.6 mph 0.01 in Rain Light Rain
4:53 PM 45.0 °F 39.3 °F 45.0 °F 100% 30.21 in 2.5 mi NNW 11.5 mph 18.4 mph 0.05 in Rain Light Rain
5:53 PM 44.1 °F 37.7 °F 43.0 °F 96% 30.20 in 5.0 mi North 12.7 mph 19.6 mph 0.07 in Rain Light Rain
6:53 PM 41.0 °F 32.8 °F 41.0 °F 100% 30.23 in 5.0 mi NNW 16.1 mph - 0.03 in Rain Light Rain
7:53 PM 39.9 °F 32.9 °F 39.0 °F 97% 30.25 in 4.0 mi NNW 11.5 mph - 0.00 in Rain Light Rain
8:53 PM 39.0 °F 31.0 °F 37.9 °F 96% 30.26 in 4.0 mi North 13.8 mph 18.4 mph 0.03 in Rain Rain
9:53 PM 36.0 °F 25.6 °F 36.0 °F 100% 30.27 in 3.0 mi NNW 18.4 mph 25.3 mph 0.14 in Rain Heavy Rain
10:01 PM 35.6 °F 25.9 °F 35.6 °F 100% 30.26 in 4.0 mi NNW 16.1 mph 25.3 mph 0.02 in Rain Rain
10:09 PM 35.6 °F 27.5 °F 35.6 °F 100% 30.26 in 3.0 mi North 11.5 mph 20.7 mph 0.06 in Rain Heavy Rain
10:36 PM 35.6 °F 26.2 °F 35.6 °F 100% 30.26 in 5.0 mi NNW 15.0 mph 20.7 mph 0.12 in Rain Rain
10:53 PM 35.1 °F 27.4 °F 35.1 °F 100% 30.28 in 5.0 mi NNW 10.4 mph 19.6 mph 0.16 in Rain Rain
11:00 PM 35.6 °F 26.6 °F 35.6 °F 100% 30.26 in 6.0 mi NW 13.8 mph 19.6 mph 0.00 in Rain Light Rain
11:26 PM 35.6 °F 28.6 °F 33.8 °F 93% 30.24 in 4.0 mi North 9.2 mph - 0.03 in Rain Rain
11:53 PM 35.1 °F 28.6 °F 34.0 °F 96% 30.24 in 10.0 mi North 8.1 mph - 0.05 in Rain Light Rain